Weather in Kadnikovskiy

Russia / Vologda Oblast     60°19′12″N   40°15′53″E
temp.,
°C
wind,
m/s
gust,
m/s
humid.,
%
clouds,
%
prec.,
mm/h
press.,
hPa
HPBL,
m
24 january, mon
mon2400:00−13sw3129594 0.0 1031265
03:00−12sw4129460 0.0 1031316
06:00−11sw4149190 0.0 1030396
09:00−11sw4149033 0.0 1029380
12:00−8sw5158911 0.0 1028452
15:00−7ssw5158869 0.0 1027503
18:00−8ssw51588100 0.0 1025485
21:00−7ssw61688100 0.0 1023496
25 january, tue
tue2500:00−7ssw51788100 0.0 1021548
03:00−7ssw51790100 0.1 1019557
06:00−7ssw51594100 0.4 1017560
09:00−8ssw51494100 1.1 1015543
12:00−7ssw51294100 0.7 1013519
15:00−7ssw41095100 1.8 1012512
18:00−8ssw3995100 1.2 1012403
21:00−8ssw3796100 2.2 1011296
26 january, wed
wed2600:00−8ssw2497100 0.6 1012175
03:00−8w1397100 1.1 101364
06:00−9nnw389442 0.3 1014259
09:00−20nnw1110062 0.3 101611
12:00−13nnw249532 0.0 1016110
15:00−12wnw119748 0.0 10169
18:00−20w1110054 0.0 10179
21:00−22wsw1110071 0.0 10179
27 january, thu
thu2700:00−23sw1110082 0.0 10179
03:00−24ssw1110084 0.0 10169
06:00−24s2110098 0.0 101617
09:00−19s25100100 0.0 101568
12:00−12s3792100 0.0 1014192
15:00−11sse31088100 0.0 1013296
18:00−12sse3129071 0.0 1011321
21:00−12sse4139288 0.0 1010379
28 january, fri
fri2800:00−12sse41390100 0.0 1009396
03:00−12sse4129298 0.0 1008427
06:00−12sse41192100 0.0 1007416
09:00−12sse4119394 0.0 1007406
12:00−10sse41093100 0.1 1006467
15:00−9sse3993100 0.3 1006479
18:00−9se3994100 0.3 1006442
21:00−9se3995100 0.8 1006439